CW3508 Weather Reports


Display with metric or nautical units.
time (UTC)temp
F
wind
direction
speed
MPH
gust
MPH
rain 1hr
in
rain 24hr
in
rain mn
in
humidity
%
barometer
mb
20260502220038 68 323 1.0 2.0 0.00 0.05 0.02 50 1011.8
20260502215542 68 167 0.0 2.0 0.00 0.05 0.02 52 1011.8
20260502215045 68 167 0.0 2.0 0.00 0.05 0.02 47 1011.8
20260502214530 68 154 0.0 3.0 0.00 0.05 0.02 49 1011.8
20260502214029 68 154 1.0 3.0 0.00 0.05 0.02 44 1011.7
20260502213546 68 11 1.0 4.0 0.00 0.05 0.02 43 1011.7
20260502213034 69 14 1.0 4.0 0.00 0.05 0.02 42 1011.7
20260502212533 69 182 1.0 3.0 0.00 0.05 0.02 45 1011.7
20260502212022 69 341 1.0 5.0 0.00 0.05 0.02 45 1011.7
20260502211543 69 344 1.0 5.0 0.00 0.05 0.02 44 1011.7
20260502211020 69 360 1.0 4.0 0.00 0.05 0.02 43 1011.8
20260502210519 69 120 0.0 3.0 0.00 0.05 0.02 44 1011.8
20260502210017 69 181 1.0 3.0 0.00 0.05 0.02 45 1011.8
20260502205527 69 248 1.0 4.0 0.00 0.05 0.02 44 1011.9
20260502205028 69 280 2.0 4.0 0.00 0.05 0.02 43 1011.9
20260502204019 70 212 1.0 3.0 0.00 0.05 0.02 43 1011.9
20260502203600 70 234 1.0 3.0 0.00 0.05 0.02 42 1011.9
20260502203041 70 308 1.0 3.0 0.00 0.05 0.02 42 1011.9
20260502202528 70 292 1.0 3.0 0.00 0.05 0.02 41 1011.9
20260502202034 70 170 1.0 3.0 0.00 0.05 0.02 41 1011.9
20260502201534 70 186 1.0 3.0 0.00 0.05 0.02 43 1011.9
20260502201018 70 160 0.0 3.0 0.00 0.05 0.02 43 1012.2
20260502200527 70 290 2.0 3.0 0.00 0.05 0.02 40 1012.2
20260502200017 70 57 1.0 3.0 0.00 0.05 0.02 42 1012.2
20260502195519 70 275 1.0 4.0 0.00 0.05 0.02 41 1012.0
20260502195036 70 175 1.0 4.0 0.00 0.05 0.02 45 1012.0
20260502194538 70 261 1.0 2.0 0.00 0.05 0.02 44 1012.0
20260502194043 70 305 1.0 4.0 0.00 0.05 0.02 43 1011.9
20260502193524 70 29 1.0 4.0 0.00 0.05 0.02 44 1011.9
20260502193028 70 176 1.0 3.0 0.00 0.05 0.02 41 1011.9
20260502192536 70 202 2.0 3.0 0.00 0.05 0.02 43 1011.9
20260502191535 70 17 1.0 3.0 0.00 0.05 0.02 47 1011.9
20260502191021 70 16 2.0 3.0 0.00 0.05 0.02 42 1012.1
20260502190525 70 288 1.0 3.0 0.00 0.05 0.02 46 1012.1
20260502190044 70 218 1.0 3.0 0.00 0.05 0.02 42 1012.1
20260502185529 70 186 1.0 3.0 0.00 0.05 0.02 42 1012.3
20260502185034 70 49 1.0 4.0 0.00 0.05 0.02 42 1012.3
20260502184019 71 234 1.0 4.0 0.00 0.05 0.02 39 1012.4
20260502183522 71 174 2.0 5.0 0.00 0.05 0.02 41 1012.4
20260502183031 71 214 2.0 5.0 0.00 0.05 0.02 41 1012.4
20260502182548 71 261 1.0 3.0 0.00 0.05 0.02 41 1012.4
20260502182021 71 230 1.0 3.0 0.00 0.05 0.02 40 1012.4
20260502181532 71 263 2.0 4.0 0.00 0.05 0.02 44 1012.4
20260502181032 71 17 1.0 4.0 0.00 0.05 0.02 44 1012.6
20260502180538 71 184 1.0 3.0 0.00 0.05 0.02 44 1012.6
20260502164030 64 46 1.0 3.0 0.00 0.05 0.02 61 1013.0
20260502163533 63 191 1.0 4.0 0.00 0.05 0.02 63 1013.0
20260502163014 63 346 1.0 4.0 0.00 0.05 0.02 61 1013.0
20260502162528 62 319 1.0 2.0 0.00 0.05 0.02 62 1013.1
20260502162030 62 296 0.0 2.0 0.00 0.05 0.02 65 1013.1
20260502161532 62 296 0.0 3.0 0.00 0.05 0.02 65 1013.1
20260502161020 61 304 1.0 3.0 0.00 0.05 0.02 66 1012.9
20260502160553 61 297 1.0 2.0 0.00 0.05 0.02 65 1012.9
20260502152021 58 156 1.0 3.0 0.00 0.05 0.02 74 1012.7
20260502151517 58 156 1.0 3.0 0.00 0.05 0.02 76 1012.7
20260502151015 57 232 1.0 2.0 0.00 0.05 0.02 78 1012.5
20260502150530 57 232 1.0 3.0 0.00 0.05 0.02 78 1012.5
20260502130537 52 172 0.0 1.0 0.00 0.05 0.02 94 1011.3
20260502123553 52 171 0.0 1.0 0.00 0.05 0.02 94 1011.0
20260502123018 52 171 0.0 1.0 0.00 0.05 0.02 95 1011.0
20260502122534 52 171 0.0 0.0 0.00 0.05 0.02 95 1010.9
20260502122038 51 172 0.0 0.0 0.00 0.05 0.02 95 1010.9
20260502121546 51 172 0.0 0.0 0.00 0.05 0.02 94 1010.9
20260502121050 51 172 0.0 0.0 0.00 0.05 0.02 94 1010.7
20260502120545 51 172 0.0 0.0 0.00 0.05 0.02 94 1010.7
20260502115526 51 172 0.0 0.0 0.00 0.05 0.02 94 1010.3
20260502115038 51 172 0.0 0.0 0.00 0.05 0.02 94 1010.3
20260502114548 51 172 0.0 0.0 0.00 0.05 0.02 94 1010.3
20260502114035 51 172 0.0 0.0 0.00 0.05 0.02 95 1010.3
20260502113034 52 171 0.0 0.0 0.00 0.05 0.02 95 1010.3
20260502112533 52 172 0.0 0.0 0.00 0.05 0.02 95 1010.4
20260502112038 52 172 0.0 0.0 0.00 0.05 0.02 94 1010.4
20260502111538 52 171 0.0 0.0 0.00 0.05 0.02 94 1010.4
20260502111037 52 172 0.0 0.0 0.00 0.05 0.02 94 1010.4
20260502110522 52 172 0.0 0.0 0.01 0.05 0.02 95 1010.4
20260502110042 52 172 0.0 0.0 0.01 0.05 0.02 95 1010.4
20260502105543 52 171 0.0 0.0 0.01 0.05 0.02 95 1010.2
20260502105036 52 172 0.0 0.0 0.01 0.05 0.02 95 1010.2
20260502104542 52 172 0.0 0.0 0.01 0.05 0.02 95 1010.2
20260502104031 52 172 0.0 0.0 0.01 0.05 0.02 95 1010.3
20260502103540 52 172 0.0 0.0 0.01 0.05 0.02 95 1010.3
20260502103019 52 172 0.0 0.0 0.01 0.05 0.02 95 1010.3
20260502102535 52 171 0.0 0.0 0.01 0.05 0.02 94 1010.1
20260502102043 53 172 0.0 0.0 0.01 0.05 0.02 95 1010.1
20260502101546 53 172 0.0 0.0 0.01 0.05 0.02 95 1010.1
20260502101038 53 172 0.0 0.0 0.01 0.05 0.02 95 1010.3
20260502100530 53 172 0.0 0.0 0.00 0.04 0.01 95 1010.3
20260502091521 54 172 0.0 0.0 0.00 0.04 0.01 95 1010.2
20260502091021 54 172 0.0 0.0 0.01 0.04 0.01 95 1010.3
20260502090526 54 172 0.0 0.0 0.01 0.04 0.01 95 1010.3
20260502071529 57 172 0.0 0.0 0.00 0.03 0.00 95 1010.3
20260502071033 57 172 0.0 0.0 0.00 0.03 0.00 95 1010.5
20260502070520 57 172 0.0 0.0 0.00 0.03 0.00 95 1010.5
20260502070041 57 172 0.0 0.0 0.00 0.03 0.00 95 1010.5
20260502065526 57 172 0.0 0.0 0.00 0.03 0.00 95 1010.7
20260502065028 58 172 0.0 0.0 0.00 0.03 0.00 95 1010.7
20260502064522 58 172 0.0 0.0 0.00 0.03 0.00 95 1010.7
20260502064026 58 172 0.0 0.0 0.00 0.03 0.00 95 1010.8
20260502063527 58 171 0.0 0.0 0.00 0.03 0.00 95 1010.8
20260502063040 58 171 0.0 0.0 0.00 0.03 0.00 95 1010.8
20260502062530 58 171 0.0 0.0 0.00 0.03 0.00 95 1010.7
20260502062036 58 172 0.0 0.0 0.00 0.03 0.00 95 1010.7
20260502061038 58 171 0.0 0.0 0.00 0.03 0.00 95 1010.7
20260502060514 58 172 0.0 0.0 0.00 0.03 0.00 95 1010.7
20260502060035 58 172 0.0 0.0 0.00 0.03 0.00 95 1010.7
20260502055552 58 172 0.0 0.0 0.00 0.03 0.00 95 1010.7
20260502055023 58 172 0.0 0.0 0.00 0.03 0.00 95 1010.7
20260502054552 58 172 0.0 0.0 0.00 0.03 0.00 95 1010.7
20260502054037 58 171 0.0 0.0 0.00 0.03 0.00 95 1010.4
20260502053527 58 172 0.0 0.0 0.00 0.03 0.00 95 1010.4
20260502053029 58 172 0.0 0.0 0.00 0.03 0.00 95 1010.4
20260502052535 58 172 0.0 0.0 0.00 0.03 0.00 95 1010.5
20260502052053 58 171 0.0 0.0 0.00 0.03 0.00 95 1010.5
20260502051539 58 172 0.0 0.0 0.00 0.03 0.00 95 1010.5
20260502051039 58 172 0.0 0.0 0.00 0.03 0.00 95 1010.3
20260502050549 58 172 0.0 0.0 0.00 0.03 0.00 95 1010.3
20260502050043 58 171 0.0 0.0 0.00 0.03 0.00 95 1010.3
20260502045518 58 171 0.0 0.0 0.00 0.03 0.03 95 1010.7
20260502045023 58 172 0.0 0.0 0.00 0.03 0.03 95 1010.7
20260502044542 58 171 0.0 0.0 0.00 0.03 0.03 95 1010.7
20260502044050 58 171 0.0 0.0 0.00 0.03 0.03 95 1010.3
20260502043533 58 172 0.0 0.0 0.00 0.03 0.03 95 1010.3
20260502042552 58 172 0.0 0.0 0.00 0.03 0.03 95 1010.3
20260502042100 58 171 0.0 0.0 0.00 0.03 0.03 95 1010.3
20260502041543 58 172 0.0 0.0 0.00 0.03 0.03 95 1010.3
20260502041028 58 172 0.0 0.0 0.00 0.03 0.03 95 1010.2
20260502040533 58 172 0.0 0.0 0.00 0.03 0.03 94 1010.2
20260502040040 58 172 0.0 0.0 0.00 0.03 0.03 94 1010.2
20260502035526 58 172 0.0 0.0 0.00 0.03 0.03 94 1010.2
20260502035026 58 171 0.0 0.0 0.00 0.03 0.03 94 1010.2
20260502034517 58 172 0.0 0.0 0.00 0.03 0.03 94 1010.2
20260502033518 58 171 0.0 0.0 0.00 0.03 0.03 94 1010.3
20260502033023 58 172 0.0 0.0 0.00 0.03 0.03 94 1010.3
20260502032530 58 171 0.0 0.0 0.00 0.03 0.03 94 1010.7
20260502032027 58 171 0.0 0.0 0.00 0.03 0.03 94 1010.7
20260502031532 58 171 0.0 0.0 0.00 0.03 0.03 94 1010.7
20260502031032 58 172 0.0 0.0 0.00 0.03 0.03 94 1010.8
20260502030018 58 172 0.0 0.0 0.01 0.03 0.03 94 1010.8
20260502025520 58 172 0.0 0.0 0.01 0.03 0.03 94 1010.8
20260502025020 58 172 0.0 0.0 0.01 0.03 0.03 93 1010.8
20260502024536 58 171 0.0 0.0 0.01 0.03 0.03 93 1010.8
20260502024030 58 172 0.0 0.0 0.01 0.03 0.03 93 1010.8
20260502023519 58 172 0.0 0.0 0.01 0.03 0.03 93 1010.8
20260502023035 58 171 0.0 0.0 0.01 0.03 0.03 93 1010.8
20260502022542 58 171 0.0 0.0 0.02 0.03 0.03 93 1011.3
20260502022028 58 171 0.0 1.0 0.02 0.03 0.03 92 1011.3
20260502021559 59 172 1.0 1.0 0.02 0.03 0.03 92 1011.3
20260502021023 59 172 0.0 1.0 0.03 0.03 0.03 92 1011.3
20260502020553 59 172 0.0 0.0 0.02 0.02 0.02 92 1011.3
20260502020106 59 171 0.0 0.0 0.02 0.02 0.02 91 1011.3
20260502015532 59 172 0.0 0.0 0.02 0.02 0.02 91 1011.3
20260502015019 59 171 0.0 0.0 0.02 0.02 0.02 91 1011.3
20260502014523 59 172 0.0 0.0 0.02 0.02 0.02 90 1011.3
20260502013526 59 171 0.0 0.0 0.02 0.02 0.02 90 1011.3
20260502013025 59 172 0.0 0.0 0.02 0.02 0.02 89 1011.3
20260502012545 60 172 0.0 0.0 0.01 0.01 0.01 89 1011.0
20260502012015 60 172 0.0 0.0 0.01 0.01 0.01 89 1011.0
20260502011526 60 171 0.0 1.0 0.00 0.00 0.00 88 1011.0
20260502011030 60 172 0.0 1.0 0.00 0.00 0.00 87 1010.7
20260502010518 60 172 0.0 0.0 0.00 0.00 0.00 87 1010.7
20260502010046 60 172 0.0 0.0 0.00 0.00 0.00 87 1010.7
20260502005531 60 172 0.0 0.0 0.00 0.00 0.00 86 1010.2
20260502005038 60 172 0.0 0.0 0.00 0.00 0.00 85 1010.2
20260502004525 60 172 0.0 0.0 0.00 0.00 0.00 85 1010.2
20260502004052 60 172 0.0 0.0 0.00 0.00 0.00 85 1010.2
20260502003518 60 172 0.0 0.0 0.00 0.00 0.00 85 1010.2
20260502003032 60 172 0.0 0.0 0.00 0.00 0.00 84 1010.2
20260502002529 60 172 0.0 0.0 0.00 0.00 0.00 84 1010.2
20260502002028 61 171 0.0 0.0 0.00 0.00 0.00 83 1010.2
20260502001021 61 172 0.0 0.0 0.00 0.00 0.00 82 1010.1
20260502000522 61 172 0.0 0.0 0.00 0.00 0.00 82 1010.1
20260502000108 61 172 0.0 0.0 0.00 0.00 0.00 81 1010.1
20260501235532 62 172 0.0 0.0 0.00 0.00 0.00 81 1009.8
20260501235040 62 172 0.0 1.0 0.00 0.00 0.00 81 1009.8
20260501234541 62 172 0.0 1.0 0.00 0.00 0.00 80 1009.8
20260501234033 62 172 0.0 0.0 0.00 0.00 0.00 80 1009.8
20260501233536 62 172 0.0 0.0 0.00 0.00 0.00 80 1009.8
20260501233039 62 172 0.0 0.0 0.00 0.00 0.00 80 1009.8
20260501232030 63 172 0.0 0.0 0.00 0.00 0.00 80 1009.8
20260501231517 63 172 0.0 0.0 0.00 0.00 0.00 80 1009.8
20260501231017 63 172 0.0 0.0 0.00 0.00 0.00 80 1009.7
20260501230517 63 172 0.0 0.0 0.00 0.00 0.00 80 1009.7
20260501230026 63 172 0.0 0.0 0.00 0.00 0.00 79 1009.7
20260501225527 63 172 0.0 1.0 0.00 0.00 0.00 79 1009.7
20260501224521 64 172 0.0 0.0 0.00 0.00 0.00 79 1009.7
20260501224019 64 172 0.0 0.0 0.00 0.00 0.00 79 1009.7
20260501223540 64 172 0.0 0.0 0.00 0.00 0.00 79 1009.7
20260501223049 64 172 0.0 0.0 0.00 0.00 0.00 78 1009.7
20260501222522 64 172 0.0 0.0 0.00 0.00 0.00 78 1009.8
20260501222025 64 172 0.0 0.0 0.00 0.00 0.00 77 1009.8
20260501221520 64 171 0.0 0.0 0.00 0.00 0.00 77 1009.8
20260501221025 64 172 0.0 0.0 0.00 0.00 0.00 76 1009.7
20260501220525 65 172 0.0 0.0 0.00 0.00 0.00 76 1009.7